owner,sensor,date,latitude,longitude,vertical_datum,direction_of_sea_water_velocity,sea_water_speed,upward_sea_water_velocity,qcFlag 
TABS,ioos:station:wmo:42051:1,2003-09-01T00:00:00Z,29.6350,-93.6417,2.0,251.1984656,27.21195509,-99999.0,'11111222,11111222,99999999' 
TABS,ioos:station:wmo:42051:1,2003-09-01T00:30:00Z,29.6350,-93.6417,2.0,261.5183552,27.46030044,-99999.0,'11111222,11111222,99999999' 
TABS,ioos:station:wmo:42051:1,2003-09-01T01:00:00Z,29.6350,-93.6417,2.0,240.6681898,24.92542878,-99999.0,'11111222,11111222,99999999' 
TABS,ioos:station:wmo:42051:1,2003-09-01T01:30:00Z,29.6350,-93.6417,2.0,241.0829076,21.79766042,-99999.0,'11111222,11111222,99999999' 
TABS,ioos:station:wmo:42051:1,2003-09-01T02:00:00Z,29.6350,-93.6417,2.0,245.6319062,20.52878223,-99999.0,'11111222,11111222,99999999' 
TABS,ioos:station:wmo:42051:1,2003-09-01T02:30:00Z,29.6350,-93.6417,2.0,238.5980179,17.50365676,-99999.0,'11111222,11111222,99999999' 
TABS,ioos:station:wmo:42051:1,2003-09-01T03:00:00Z,29.6350,-93.6417,2.0,234.743849,29.53771995,-99999.0,'11111222,11111222,99999999' 
TABS,ioos:station:wmo:42051:1,2003-09-01T03:30:00Z,29.6350,-93.6417,2.0,238.1842397,30.69134731,-99999.0,'11111222,11111222,99999999' 
TABS,ioos:station:wmo:42051:1,2003-09-01T04:00:00Z,29.6350,-93.6417,2.0,241.8156927,26.91063916,-99999.0,'11111222,11111222,99999999' 
TABS,ioos:station:wmo:42051:1,2003-09-01T04:30:00Z,29.6350,-93.6417,2.0,247.4648294,25.38848952,-99999.0,'11111222,11111222,99999999' 
TABS,ioos:station:wmo:42051:1,2003-09-01T05:00:00Z,29.6350,-93.6417,2.0,247.338266,25.48769899,-99999.0,'11111222,11111222,99999999' 
TABS,ioos:station:wmo:42051:1,2003-09-01T05:30:00Z,29.6350,-93.6417,2.0,254.1319163,23.29774667,-99999.0,'11111222,11111222,99999999' 
TABS,ioos:station:wmo:42051:1,2003-09-01T06:00:00Z,29.6350,-93.6417,2.0,268.0602868,22.16269388,-99999.0,'11111222,11111222,99999999' 
TABS,ioos:station:wmo:42051:1,2003-09-01T06:30:00Z,29.6350,-93.6417,2.0,260.6118233,22.74461914,-99999.0,'11111222,11111222,99999999' 
TABS,ioos:station:wmo:42051:1,2003-09-01T07:00:00Z,29.6350,-93.6417,2.0,254.240234,24.11652131,-99999.0,'11111222,11111222,99999999' 
TABS,ioos:station:wmo:42051:1,2003-09-01T07:30:00Z,29.6350,-93.6417,2.0,272.4887674,20.72954655,-99999.0,'11111222,11111222,99999999' 
TABS,ioos:station:wmo:42051:1,2003-09-01T08:00:00Z,29.6350,-93.6417,2.0,254.9710131,22.40637632,-99999.0,'11111222,11111222,99999999' 
TABS,ioos:station:wmo:42051:1,2003-09-01T08:30:00Z,29.6350,-93.6417,2.0,261.9500614,24.13782095,-99999.0,'11111222,11111222,99999999' 
TABS,ioos:station:wmo:42051:1,2003-09-01T09:00:00Z,29.6350,-93.6417,2.0,251.6163066,21.05445321,-99999.0,'11111222,11111222,99999999' 
TABS,ioos:station:wmo:42051:1,2003-09-01T09:30:00Z,29.6350,-93.6417,2.0,248.2855337,29.24519277,-99999.0,'11111222,11111222,99999999' 
TABS,ioos:station:wmo:42051:1,2003-09-01T10:00:00Z,29.6350,-93.6417,2.0,255.1656527,26.13089551,-99999.0,'11111222,11111222,99999999' 
TABS,ioos:station:wmo:42051:1,2003-09-01T10:30:00Z,29.6350,-93.6417,2.0,257.3316201,45.09780593,-99999.0,'11111222,11111222,99999999' 
TABS,ioos:station:wmo:42051:1,2003-09-01T11:00:00Z,29.6350,-93.6417,2.0,250.3867466,39.53366287,-99999.0,'11111222,11111222,99999999' 
TABS,ioos:station:wmo:42051:1,2003-09-01T11:30:00Z,29.6350,-93.6417,2.0,259.0359315,41.53815595,-99999.0,'11111222,11111222,99999999' 
TABS,ioos:station:wmo:42051:1,2003-09-01T12:00:00Z,29.6350,-93.6417,2.0,244.6568169,32.49746144,-99999.0,'11111222,11111222,99999999' 
TABS,ioos:station:wmo:42051:1,2003-09-01T12:30:00Z,29.6350,-93.6417,2.0,253.2825116,24.5787815,-99999.0,'11111222,11111222,99999999' 
TABS,ioos:station:wmo:42051:1,2003-09-01T13:00:00Z,29.6350,-93.6417,2.0,260.3932069,43.80424865,-99999.0,'11111222,11111222,99999999' 
TABS,ioos:station:wmo:42051:1,2003-09-01T13:30:00Z,29.6350,-93.6417,2.0,244.721139,37.04756942,-99999.0,'11111222,11111222,99999999' 
TABS,ioos:station:wmo:42051:1,2003-09-01T14:00:00Z,29.6350,-93.6417,2.0,228.0124648,41.03355334,-99999.0,'11111222,11111222,99999999' 
TABS,ioos:station:wmo:42051:1,2003-09-01T14:30:00Z,29.6350,-93.6417,2.0,237.1399039,39.80946621,-99999.0,'11111222,11111222,99999999' 
TABS,ioos:station:wmo:42051:1,2003-09-01T15:00:00Z,29.6350,-93.6417,2.0,238.6949083,31.98676758,-99999.0,'11111222,11111222,99999999' 
TABS,ioos:station:wmo:42051:1,2003-09-01T15:30:00Z,29.6350,-93.6417,2.0,237.1842651,37.79058084,-99999.0,'11111222,11111222,99999999' 
TABS,ioos:station:wmo:42051:1,2003-09-01T16:00:00Z,29.6350,-93.6417,2.0,236.1429197,32.41681662,-99999.0,'11111222,11111222,99999999' 
TABS,ioos:station:wmo:42051:1,2003-09-01T16:30:00Z,29.6350,-93.6417,2.0,250.2623938,37.42889926,-99999.0,'11111222,11111222,99999999' 
TABS,ioos:station:wmo:42051:1,2003-09-01T17:00:00Z,29.6350,-93.6417,2.0,251.0045533,33.64191731,-99999.0,'11111222,11111222,99999999' 
TABS,ioos:station:wmo:42051:1,2003-09-01T17:30:00Z,29.6350,-93.6417,2.0,243.9422038,23.22024117,-99999.0,'11111222,11111222,99999999' 
TABS,ioos:station:wmo:42051:1,2003-09-01T18:00:00Z,29.6350,-93.6417,2.0,244.7175927,19.9730944,-99999.0,'11111222,11111222,99999999' 
TABS,ioos:station:wmo:42051:1,2003-09-01T18:30:00Z,29.6350,-93.6417,2.0,228.4972989,27.9332508,-99999.0,'11111222,11111222,99999999' 
TABS,ioos:station:wmo:42051:1,2003-09-01T19:00:00Z,29.6350,-93.6417,2.0,232.2478352,23.25875534,-99999.0,'11111222,11111222,99999999' 
TABS,ioos:station:wmo:42051:1,2003-09-01T19:30:00Z,29.6350,-93.6417,2.0,234.2818421,19.59596132,-99999.0,'11111222,11111222,99999999' 
TABS,ioos:station:wmo:42051:1,2003-09-01T20:00:00Z,29.6350,-93.6417,2.0,253.3592019,19.59043134,-99999.0,'11111222,11111222,99999999' 
TABS,ioos:station:wmo:42051:1,2003-09-01T20:30:00Z,29.6350,-93.6417,2.0,264.9133693,17.25795469,-99999.0,'11111222,11111222,99999999' 
TABS,ioos:station:wmo:42051:1,2003-09-01T21:00:00Z,29.6350,-93.6417,2.0,262.3978991,21.46867485,-99999.0,'11111222,11111222,99999999' 
TABS,ioos:station:wmo:42051:1,2003-09-01T21:30:00Z,29.6350,-93.6417,2.0,271.8001304,27.38350781,-99999.0,'11111222,11111222,99999999' 
TABS,ioos:station:wmo:42051:1,2003-09-01T22:00:00Z,29.6350,-93.6417,2.0,265.8429589,31.04165105,-99999.0,'11111222,11111222,99999999' 
TABS,ioos:station:wmo:42051:1,2003-09-01T22:30:00Z,29.6350,-93.6417,2.0,258.7052256,28.89967474,-99999.0,'11111222,11111222,99999999' 
TABS,ioos:station:wmo:42051:1,2003-09-01T23:00:00Z,29.6350,-93.6417,2.0,246.0939754,29.68670578,-99999.0,'11111222,11111222,99999999' 
TABS,ioos:station:wmo:42051:1,2003-09-01T23:30:00Z,29.6350,-93.6417,2.0,257.1590605,31.49768404,-99999.0,'11111222,11111222,99999999' 
TABS,ioos:station:wmo:42051:1,2003-09-02T00:00:00Z,29.6350,-93.6417,2.0,248.3829994,38.00274858,-99999.0,'11111222,11111222,99999999' 
TABS,ioos:station:wmo:42051:1,2003-09-02T00:30:00Z,29.6350,-93.6417,2.0,254.8288589,30.37869155,-99999.0,'11111222,11111222,99999999' 
TABS,ioos:station:wmo:42051:1,2003-09-02T01:00:00Z,29.6350,-93.6417,2.0,252.3155563,48.26050145,-99999.0,'11111222,11111222,99999999' 
TABS,ioos:station:wmo:42051:1,2003-09-02T01:30:00Z,29.6350,-93.6417,2.0,251.1790766,59.20550312,-99999.0,'11111222,11111222,99999999' 
TABS,ioos:station:wmo:42051:1,2003-09-02T02:00:00Z,29.6350,-93.6417,2.0,258.0606321,62.16471668,-99999.0,'11111222,11111222,99999999' 
TABS,ioos:station:wmo:42051:1,2003-09-02T02:30:00Z,29.6350,-93.6417,2.0,256.6631461,57.78842272,-99999.0,'11111222,11111222,99999999' 
TABS,ioos:station:wmo:42051:1,2003-09-02T03:00:00Z,29.6350,-93.6417,2.0,253.8509521,56.91570785,-99999.0,'11111222,11111222,99999999' 
TABS,ioos:station:wmo:42051:1,2003-09-02T03:30:00Z,29.6350,-93.6417,2.0,255.3862472,57.78946963,-99999.0,'11111222,11111222,99999999' 
TABS,ioos:station:wmo:42051:1,2003-09-02T04:00:00Z,29.6350,-93.6417,2.0,253.0721056,54.09366876,-99999.0,'11111222,11111222,99999999' 
TABS,ioos:station:wmo:42051:1,2003-09-02T04:30:00Z,29.6350,-93.6417,2.0,251.9984243,55.13905331,-99999.0,'11111222,11111222,99999999' 
TABS,ioos:station:wmo:42051:1,2003-09-02T05:00:00Z,29.6350,-93.6417,2.0,257.3912598,57.03541093,-99999.0,'11111222,11111222,99999999' 
TABS,ioos:station:wmo:42051:1,2003-09-02T05:30:00Z,29.6350,-93.6417,2.0,255.6546057,56.70807791,-99999.0,'11111222,11111222,99999999' 
TABS,ioos:station:wmo:42051:1,2003-09-02T06:00:00Z,29.6350,-93.6417,2.0,256.2065954,58.84694894,-99999.0,'11111222,11111222,99999999' 
TABS,ioos:station:wmo:42051:1,2003-09-02T06:30:00Z,29.6350,-93.6417,2.0,260.9439579,62.07368927,-99999.0,'11111222,11111222,99999999' 
TABS,ioos:station:wmo:42051:1,2003-09-02T07:00:00Z,29.6350,-93.6417,2.0,261.1530176,63.33343509,-99999.0,'11111222,11111222,99999999' 
TABS,ioos:station:wmo:42051:1,2003-09-02T07:30:00Z,29.6350,-93.6417,2.0,268.6963695,61.99603616,-99999.0,'11111222,11111222,99999999' 
TABS,ioos:station:wmo:42051:1,2003-09-02T08:00:00Z,29.6350,-93.6417,2.0,271.88721,63.17425108,-99999.0,'11111222,11111222,99999999' 
TABS,ioos:station:wmo:42051:1,2003-09-02T08:30:00Z,29.6350,-93.6417,2.0,268.272549,62.04818531,-99999.0,'11111222,11111222,99999999' 
TABS,ioos:station:wmo:42051:1,2003-09-02T09:00:00Z,29.6350,-93.6417,2.0,264.8060601,57.77719706,-99999.0,'11111222,11111222,99999999' 
TABS,ioos:station:wmo:42051:1,2003-09-02T09:30:00Z,29.6350,-93.6417,2.0,282.490733,54.93005826,-99999.0,'11111222,11111222,99999999' 
TABS,ioos:station:wmo:42051:1,2003-09-02T10:00:00Z,29.6350,-93.6417,2.0,289.6068336,56.14532661,-99999.0,'11111222,11111222,99999999' 
TABS,ioos:station:wmo:42051:1,2003-09-02T10:30:00Z,29.6350,-93.6417,2.0,293.0411349,50.05288903,-99999.0,'11111222,11111222,99999999' 
TABS,ioos:station:wmo:42051:1,2003-09-02T11:00:00Z,29.6350,-93.6417,2.0,295.9389755,45.40383794,-99999.0,'11111222,11111222,99999999' 
TABS,ioos:station:wmo:42051:1,2003-09-02T11:30:00Z,29.6350,-93.6417,2.0,295.2554203,41.27518625,-99999.0,'11111222,11111222,99999999' 
TABS,ioos:station:wmo:42051:1,2003-09-02T12:00:00Z,29.6350,-93.6417,2.0,289.3267004,40.2480161,-99999.0,'11111222,11111222,99999999' 
TABS,ioos:station:wmo:42051:1,2003-09-02T12:30:00Z,29.6350,-93.6417,2.0,277.9451497,31.03790747,-99999.0,'11111222,11111222,99999999' 
TABS,ioos:station:wmo:42051:1,2003-09-02T13:00:00Z,29.6350,-93.6417,2.0,272.2716982,27.25140914,-99999.0,'11111222,11111222,99999999' 
TABS,ioos:station:wmo:42051:1,2003-09-02T13:30:00Z,29.6350,-93.6417,2.0,275.5177681,28.91395511,-99999.0,'11111222,11111222,99999999' 
TABS,ioos:station:wmo:42051:1,2003-09-02T14:00:00Z,29.6350,-93.6417,2.0,293.7328154,18.46117277,-99999.0,'11111222,11111222,99999999' 
TABS,ioos:station:wmo:42051:1,2003-09-02T14:30:00Z,29.6350,-93.6417,2.0,254.9703647,17.35360481,-99999.0,'11111222,11111222,99999999' 
TABS,ioos:station:wmo:42051:1,2003-09-02T15:00:00Z,29.6350,-93.6417,2.0,259.4315896,12.26809276,-99999.0,'11111222,11111222,99999999' 
TABS,ioos:station:wmo:42051:1,2003-09-02T15:30:00Z,29.6350,-93.6417,2.0,248.2742948,18.18144659,-99999.0,'11111222,11111222,99999999' 
TABS,ioos:station:wmo:42051:1,2003-09-02T16:00:00Z,29.6350,-93.6417,2.0,248.8591889,11.59001726,-99999.0,'11111222,11111222,99999999' 
TABS,ioos:station:wmo:42051:1,2003-09-02T16:30:00Z,29.6350,-93.6417,2.0,240.8167009,12.14110374,-99999.0,'11111222,11111222,99999999' 
TABS,ioos:station:wmo:42051:1,2003-09-02T17:00:00Z,29.6350,-93.6417,2.0,242.224578,12.91840934,-99999.0,'11111222,11111222,99999999' 
TABS,ioos:station:wmo:42051:1,2003-09-02T17:30:00Z,29.6350,-93.6417,2.0,237.8087603,11.13109608,-99999.0,'11111222,11111222,99999999' 
TABS,ioos:station:wmo:42051:1,2003-09-02T18:00:00Z,29.6350,-93.6417,2.0,239.3289801,16.4280644,-99999.0,'11111222,11111222,99999999' 
TABS,ioos:station:wmo:42051:1,2003-09-02T18:30:00Z,29.6350,-93.6417,2.0,261.9028978,14.55508846,-99999.0,'11111222,11111222,99999999' 
TABS,ioos:station:wmo:42051:1,2003-09-02T19:00:00Z,29.6350,-93.6417,2.0,271.8428623,14.30739669,-99999.0,'11111222,11111222,99999999' 
TABS,ioos:station:wmo:42051:1,2003-09-02T19:30:00Z,29.6350,-93.6417,2.0,265.7180529,13.12663323,-99999.0,'11111222,11111222,99999999' 
TABS,ioos:station:wmo:42051:1,2003-09-02T20:00:00Z,29.6350,-93.6417,2.0,268.7210902,11.65290093,-99999.0,'11111222,11111222,99999999' 
TABS,ioos:station:wmo:42051:1,2003-09-02T20:30:00Z,29.6350,-93.6417,2.0,257.7850408,15.03025283,-99999.0,'11111222,11111222,99999999' 
TABS,ioos:station:wmo:42051:1,2003-09-02T21:00:00Z,29.6350,-93.6417,2.0,252.479815,24.9472283,-99999.0,'11111222,11111222,99999999' 
TABS,ioos:station:wmo:42051:1,2003-09-02T21:30:00Z,29.6350,-93.6417,2.0,251.2818875,26.26936048,-99999.0,'11111222,11111222,99999999' 
TABS,ioos:station:wmo:42051:1,2003-09-02T22:00:00Z,29.6350,-93.6417,2.0,253.5788708,32.12012609,-99999.0,'11111222,11111222,99999999' 
TABS,ioos:station:wmo:42051:1,2003-09-02T22:30:00Z,29.6350,-93.6417,2.0,248.7923381,24.71366424,-99999.0,'11111222,11111222,99999999' 
TABS,ioos:station:wmo:42051:1,2003-09-02T23:00:00Z,29.6350,-93.6417,2.0,247.9115833,26.35421219,-99999.0,'11111222,11111222,99999999' 
TABS,ioos:station:wmo:42051:1,2003-09-02T23:30:00Z,29.6350,-93.6417,2.0,246.316384,23.75024421,-99999.0,'11111222,11111222,99999999' 
TABS,ioos:station:wmo:42051:1,2003-09-03T00:00:00Z,29.6350,-93.6417,2.0,251.608145,33.34306525,-99999.0,'11111222,11111222,99999999' 
TABS,ioos:station:wmo:42051:1,2003-09-03T00:30:00Z,29.6350,-93.6417,2.0,250.6293174,46.49167667,-99999.0,'11111222,11111222,99999999' 
TABS,ioos:station:wmo:42051:1,2003-09-03T01:00:00Z,29.6350,-93.6417,2.0,250.6722021,51.36478268,-99999.0,'11111222,11111222,99999999' 
TABS,ioos:station:wmo:42051:1,2003-09-03T01:30:00Z,29.6350,-93.6417,2.0,252.2517032,53.80053531,-99999.0,'11111222,11111222,99999999' 
TABS,ioos:station:wmo:42051:1,2003-09-03T02:00:00Z,29.6350,-93.6417,2.0,258.6055879,53.45347136,-99999.0,'11111222,11111222,99999999' 
TABS,ioos:station:wmo:42051:1,2003-09-03T02:30:00Z,29.6350,-93.6417,2.0,263.4514602,55.68325511,-99999.0,'11111222,11111222,99999999' 
TABS,ioos:station:wmo:42051:1,2003-09-03T03:00:00Z,29.6350,-93.6417,2.0,259.0169451,50.1281019,-99999.0,'11111222,11111222,99999999' 
TABS,ioos:station:wmo:42051:1,2003-09-03T03:30:00Z,29.6350,-93.6417,2.0,257.1783484,46.32501808,-99999.0,'11111222,11111222,99999999' 
TABS,ioos:station:wmo:42051:1,2003-09-03T04:00:00Z,29.6350,-93.6417,2.0,249.56377,45.19436801,-99999.0,'11111222,11111222,99999999' 
TABS,ioos:station:wmo:42051:1,2003-09-03T04:30:00Z,29.6350,-93.6417,2.0,252.6353503,46.70867157,-99999.0,'11111222,11111222,99999999' 
TABS,ioos:station:wmo:42051:1,2003-09-03T05:00:00Z,29.6350,-93.6417,2.0,245.7680454,47.56035429,-99999.0,'11111222,11111222,99999999' 
TABS,ioos:station:wmo:42051:1,2003-09-03T05:30:00Z,29.6350,-93.6417,2.0,239.6229569,49.04259475,-99999.0,'11111222,11111222,99999999' 
TABS,ioos:station:wmo:42051:1,2003-09-03T06:00:00Z,29.6350,-93.6417,2.0,242.1261376,50.13677293,-99999.0,'11111222,11111222,99999999' 
TABS,ioos:station:wmo:42051:1,2003-09-03T06:30:00Z,29.6350,-93.6417,2.0,242.0448387,53.84246651,-99999.0,'11111222,11111222,99999999' 
TABS,ioos:station:wmo:42051:1,2003-09-03T07:00:00Z,29.6350,-93.6417,2.0,242.029606,53.62361513,-99999.0,'11111222,11111222,99999999' 
TABS,ioos:station:wmo:42051:1,2003-09-03T07:30:00Z,29.6350,-93.6417,2.0,240.4297153,52.80803443,-99999.0,'11111222,11111222,99999999' 
TABS,ioos:station:wmo:42051:1,2003-09-03T08:00:00Z,29.6350,-93.6417,2.0,241.695211,52.74631456,-99999.0,'11111222,11111222,99999999' 
TABS,ioos:station:wmo:42051:1,2003-09-03T08:30:00Z,29.6350,-93.6417,2.0,239.7808394,46.03582627,-99999.0,'11111222,11111222,99999999' 
TABS,ioos:station:wmo:42051:1,2003-09-03T09:00:00Z,29.6350,-93.6417,2.0,252.4030864,42.14186161,-99999.0,'11111222,11111222,99999999' 
TABS,ioos:station:wmo:42051:1,2003-09-03T09:30:00Z,29.6350,-93.6417,2.0,253.1505898,44.3331411,-99999.0,'11111222,11111222,99999999' 
TABS,ioos:station:wmo:42051:1,2003-09-03T10:00:00Z,29.6350,-93.6417,2.0,251.0118572,40.96921405,-99999.0,'11111222,11111222,99999999' 
TABS,ioos:station:wmo:42051:1,2003-09-03T10:30:00Z,29.6350,-93.6417,2.0,248.4796334,46.12542141,-99999.0,'11111222,11111222,99999999' 
TABS,ioos:station:wmo:42051:1,2003-09-03T11:00:00Z,29.6350,-93.6417,2.0,243.5841588,47.96829369,-99999.0,'11111222,11111222,99999999' 
TABS,ioos:station:wmo:42051:1,2003-09-03T11:30:00Z,29.6350,-93.6417,2.0,246.4914255,47.38261812,-99999.0,'11111222,11111222,99999999' 
TABS,ioos:station:wmo:42051:1,2003-09-03T12:00:00Z,29.6350,-93.6417,2.0,248.0968784,51.44326001,-99999.0,'11111222,11111222,99999999' 
TABS,ioos:station:wmo:42051:1,2003-09-03T12:30:00Z,29.6350,-93.6417,2.0,249.1313108,55.19040225,-99999.0,'11111222,11111222,99999999' 
TABS,ioos:station:wmo:42051:1,2003-09-03T13:00:00Z,29.6350,-93.6417,2.0,254.7581453,51.54294714,-99999.0,'11111222,11111222,99999999' 
TABS,ioos:station:wmo:42051:1,2003-09-03T13:30:00Z,29.6350,-93.6417,2.0,258.3415136,51.96192933,-99999.0,'11111222,11111222,99999999' 
TABS,ioos:station:wmo:42051:1,2003-09-03T14:00:00Z,29.6350,-93.6417,2.0,252.8102661,51.06071386,-99999.0,'11111222,11111222,99999999' 
TABS,ioos:station:wmo:42051:1,2003-09-03T14:30:00Z,29.6350,-93.6417,2.0,257.2227507,58.37544861,-99999.0,'11111222,11111222,99999999' 
TABS,ioos:station:wmo:42051:1,2003-09-03T15:00:00Z,29.6350,-93.6417,2.0,256.2361178,54.51535013,-99999.0,'11111222,11111222,99999999' 
TABS,ioos:station:wmo:42051:1,2003-09-03T15:30:00Z,29.6350,-93.6417,2.0,253.2971352,50.83471452,-99999.0,'11111222,11111222,99999999' 
TABS,ioos:station:wmo:42051:1,2003-09-03T16:00:00Z,29.6350,-93.6417,2.0,253.3153903,47.51010103,-99999.0,'11111222,11111222,99999999' 
TABS,ioos:station:wmo:42051:1,2003-09-03T16:30:00Z,29.6350,-93.6417,2.0,250.789279,45.80029913,-99999.0,'11111222,11111222,99999999' 
TABS,ioos:station:wmo:42051:1,2003-09-03T17:00:00Z,29.6350,-93.6417,2.0,248.6105499,38.96360481,-99999.0,'11111222,11111222,99999999' 
TABS,ioos:station:wmo:42051:1,2003-09-03T17:30:00Z,29.6350,-93.6417,2.0,250.6067677,38.3985794,-99999.0,'11111222,11111222,99999999' 
TABS,ioos:station:wmo:42051:1,2003-09-03T18:00:00Z,29.6350,-93.6417,2.0,248.081738,38.36287919,-99999.0,'11111222,11111222,99999999' 
TABS,ioos:station:wmo:42051:1,2003-09-03T18:30:00Z,29.6350,-93.6417,2.0,249.4067583,34.60088149,-99999.0,'11111222,11111222,99999999' 
TABS,ioos:station:wmo:42051:1,2003-09-03T19:00:00Z,29.6350,-93.6417,2.0,254.2779423,38.34449374,-99999.0,'11111222,11111222,99999999' 
TABS,ioos:station:wmo:42051:1,2003-09-03T19:30:00Z,29.6350,-93.6417,2.0,250.882684,31.08422912,-99999.0,'11111222,11111222,99999999' 
TABS,ioos:station:wmo:42051:1,2003-09-03T20:00:00Z,29.6350,-93.6417,2.0,256.0244599,34.11993113,-99999.0,'11111222,11111222,99999999' 
TABS,ioos:station:wmo:42051:1,2003-09-03T20:30:00Z,29.6350,-93.6417,2.0,259.8310469,35.3451793,-99999.0,'11111222,11111222,99999999' 
TABS,ioos:station:wmo:42051:1,2003-09-03T21:00:00Z,29.6350,-93.6417,2.0,256.5370472,35.60844001,-99999.0,'11111222,11111222,99999999' 
TABS,ioos:station:wmo:42051:1,2003-09-03T21:30:00Z,29.6350,-93.6417,2.0,257.7813661,36.61948388,-99999.0,'11111222,11111222,99999999' 
TABS,ioos:station:wmo:42051:1,2003-09-03T22:00:00Z,29.6350,-93.6417,2.0,256.277314,33.64019619,-99999.0,'11111222,11111222,99999999' 
TABS,ioos:station:wmo:42051:1,2003-09-03T22:30:00Z,29.6350,-93.6417,2.0,260.8922661,39.80175876,-99999.0,'11111222,11111222,99999999' 
TABS,ioos:station:wmo:42051:1,2003-09-03T23:00:00Z,29.6350,-93.6417,2.0,261.4072666,40.49449469,-99999.0,'11111222,11111222,99999999' 
TABS,ioos:station:wmo:42051:1,2003-09-03T23:30:00Z,29.6350,-93.6417,2.0,262.89526,41.23659055,-99999.0,'11111222,11111222,99999999' 
TABS,ioos:station:wmo:42051:1,2003-09-04T00:00:00Z,29.6350,-93.6417,2.0,261.6622628,44.96521433,-99999.0,'11111222,11111222,99999999' 
TABS,ioos:station:wmo:42051:1,2003-09-04T00:30:00Z,29.6350,-93.6417,2.0,258.6033132,40.33525133,-99999.0,'11111222,11111222,99999999' 
TABS,ioos:station:wmo:42051:1,2003-09-04T01:00:00Z,29.6350,-93.6417,2.0,256.2684,46.46805892,-99999.0,'11111222,11111222,99999999' 
TABS,ioos:station:wmo:42051:1,2003-09-04T01:30:00Z,29.6350,-93.6417,2.0,257.7704971,49.14518288,-99999.0,'11111222,11111222,99999999' 
TABS,ioos:station:wmo:42051:1,2003-09-04T02:00:00Z,29.6350,-93.6417,2.0,261.2121813,48.57011839,-99999.0,'11111222,11111222,99999999' 
TABS,ioos:station:wmo:42051:1,2003-09-04T02:30:00Z,29.6350,-93.6417,2.0,262.1535052,48.78672463,-99999.0,'11111222,11111222,99999999' 
TABS,ioos:station:wmo:42051:1,2003-09-04T03:00:00Z,29.6350,-93.6417,2.0,261.8356531,50.27954355,-99999.0,'11111222,11111222,99999999' 
TABS,ioos:station:wmo:42051:1,2003-09-04T03:30:00Z,29.6350,-93.6417,2.0,261.1494421,45.23860741,-99999.0,'11111222,11111222,99999999' 
TABS,ioos:station:wmo:42051:1,2003-09-04T04:00:00Z,29.6350,-93.6417,2.0,255.6018004,40.73952012,-99999.0,'11111222,11111222,99999999' 
TABS,ioos:station:wmo:42051:1,2003-09-04T04:30:00Z,29.6350,-93.6417,2.0,254.8449633,39.51415569,-99999.0,'11111222,11111222,99999999' 
TABS,ioos:station:wmo:42051:1,2003-09-04T05:00:00Z,29.6350,-93.6417,2.0,245.7070844,40.71504145,-99999.0,'11111222,11111222,99999999' 
TABS,ioos:station:wmo:42051:1,2003-09-04T05:30:00Z,29.6350,-93.6417,2.0,240.2530414,41.17581086,-99999.0,'11111222,11111222,99999999' 
TABS,ioos:station:wmo:42051:1,2003-09-04T06:00:00Z,29.6350,-93.6417,2.0,240.545833,41.2631676,-99999.0,'11111222,11111222,99999999' 
TABS,ioos:station:wmo:42051:1,2003-09-04T06:30:00Z,29.6350,-93.6417,2.0,237.9753776,41.78935869,-99999.0,'11111222,11111222,99999999' 
TABS,ioos:station:wmo:42051:1,2003-09-04T07:00:00Z,29.6350,-93.6417,2.0,237.566637,43.74309088,-99999.0,'11111222,11111222,99999999' 
TABS,ioos:station:wmo:42051:1,2003-09-04T07:30:00Z,29.6350,-93.6417,2.0,240.392725,41.21066003,-99999.0,'11111222,11111222,99999999' 
TABS,ioos:station:wmo:42051:1,2003-09-04T08:00:00Z,29.6350,-93.6417,2.0,238.9045572,45.63760839,-99999.0,'11111222,11111222,99999999' 
TABS,ioos:station:wmo:42051:1,2003-09-04T08:30:00Z,29.6350,-93.6417,2.0,237.4346548,45.9075179,-99999.0,'11111222,11111222,99999999' 
TABS,ioos:station:wmo:42051:1,2003-09-04T09:00:00Z,29.6350,-93.6417,2.0,243.3261297,44.886909,-99999.0,'11111222,11111222,99999999' 
TABS,ioos:station:wmo:42051:1,2003-09-04T09:30:00Z,29.6350,-93.6417,2.0,241.5316073,44.30752645,-99999.0,'11111222,11111222,99999999' 
TABS,ioos:station:wmo:42051:1,2003-09-04T10:00:00Z,29.6350,-93.6417,2.0,242.7429021,43.7138422,-99999.0,'11111222,11111222,99999999' 
TABS,ioos:station:wmo:42051:1,2003-09-04T10:30:00Z,29.6350,-93.6417,2.0,254.7013122,43.05566746,-99999.0,'11111222,11111222,99999999' 
TABS,ioos:station:wmo:42051:1,2003-09-04T11:00:00Z,29.6350,-93.6417,2.0,255.3535272,43.97905069,-99999.0,'11111222,11111222,99999999' 
TABS,ioos:station:wmo:42051:1,2003-09-04T11:30:00Z,29.6350,-93.6417,2.0,256.7047961,40.48501081,-99999.0,'11111222,11111222,99999999' 
TABS,ioos:station:wmo:42051:1,2003-09-04T12:00:00Z,29.6350,-93.6417,2.0,261.3876408,41.87210169,-99999.0,'11111222,11111222,99999999' 
TABS,ioos:station:wmo:42051:1,2003-09-04T12:30:00Z,29.6350,-93.6417,2.0,258.6098519,42.23168952,-99999.0,'11111222,11111222,99999999' 
TABS,ioos:station:wmo:42051:1,2003-09-04T13:00:00Z,29.6350,-93.6417,2.0,257.0622468,43.50434001,-99999.0,'11111222,11111222,99999999' 
TABS,ioos:station:wmo:42051:1,2003-09-04T13:30:00Z,29.6350,-93.6417,2.0,262.4409133,42.11596016,-99999.0,'11111222,11111222,99999999' 
TABS,ioos:station:wmo:42051:1,2003-09-04T14:00:00Z,29.6350,-93.6417,2.0,264.3023684,38.37958051,-99999.0,'11111222,11111222,99999999' 
TABS,ioos:station:wmo:42051:1,2003-09-04T14:30:00Z,29.6350,-93.6417,2.0,264.116211,40.58377139,-99999.0,'11111222,11111222,99999999' 
TABS,ioos:station:wmo:42051:1,2003-09-04T15:00:00Z,29.6350,-93.6417,2.0,262.2380804,42.42869901,-99999.0,'11111222,11111222,99999999' 
TABS,ioos:station:wmo:42051:1,2003-09-04T15:30:00Z,29.6350,-93.6417,2.0,263.6399337,39.0,-99999.0,'11111222,11111222,99999999' 
TABS,ioos:station:wmo:42051:1,2003-09-04T16:00:00Z,29.6350,-93.6417,2.0,263.4018954,40.29687085,-99999.0,'11111222,11111222,99999999' 